Regional Weather Roundup
Issued by NWS

Home | Current Version | Previous Version | Text Only | Print | Product List | Glossary On
Versions: 1 2 3 4 5 6 7 8 9 10 11 12 13 14 15 16 17 18 19 20 21 22 23 24 25 26 27 28 29 30 31 32 33 34 35 36 37 38 39 40 41 42 43 44 45 46 47 48 49 50
000
ASUS44 KFWD 212115
RWRTX
NORTH TEXAS HOURLY WEATHER ROUNDUP
NATIONAL WEATHER SERVICE FORT WORTH TX
400 PM CDT TUE OCT 21 2014

NOTE: "FAIR" INDICATES FEW OR NO CLOUDS BELOW 12,000 FEET WITH NO
SIGNIFICANT WEATHER AND/OR OBSTRUCTIONS TO VISIBILITY.

TXZ118-119-212200-
DALLAS/FORT WORTH METROPLEX

CITY           SKY/WX    TMP DP  RH WIND       PRES   REMARKS
DFW AIRPORT    MOSUNNY   81  56  42 SE8       30.03S
DALLAS LOVE    MOSUNNY   81  57  43 SE7       30.03S
FTW MEACHAM    SUNNY     82  51  34 E13       30.02F
DAL-EXECUTIVE  SUNNY     82  56  40 SE8G17    30.03S
FTW-ALLIANCE   MOSUNNY   81  48  31 SE8       30.02F
FTW-NAS-JRB    SUNNY     84  49  29 SE10      30.06F
FTW-SPINKS     SUNNY     82  48  30 SE12      30.04F
ARLINGTON      SUNNY     82  51  34 E7        30.03F
GRAND PRAIRIE  SUNNY     81  54  39 MISG      30.04F
ADDISON        SUNNY     81  57  44 S6        30.04S
MESQUITE       SUNNY     77  55  47 CALM      30.03F
LANCASTER      SUNNY     80  54  40 SE9       30.04F
$$

TXZ091>094-102>105-117-120-121-131>134-212200-
NORTH CENTRAL TEXAS

CITY           SKY/WX    TMP DP  RH WIND       PRES   REMARKS
SHRMAN/DENISON PTSUNNY   82  60  48 S7        30.04F
GAINESVILLE    SUNNY     80  58  46 S12       30.05F
BOWIE          SUNNY     82  47  30 E8        30.03F
BRIDGEPORT     SUNNY     82  53  37 SE7       30.04F
DECATUR        SUNNY     80  46  30 SE9       30.04S
DENTON         SUNNY     81  55  40 SE13      30.03S
MCKINNEY       SUNNY     79  58  48 VRB6      30.03F
GREENVILLE     SUNNY     81  55  41 SE3       30.04S
ROCKWALL       SUNNY     80  60  49 E6        30.03S
TERRELL        SUNNY     81  57  43 E6        30.04S
WAXAHACHIE     SUNNY     81  56  42 SE8       30.04F
CLEBURNE       SUNNY     82  52  34 E7        30.04S
GRANBURY       SUNNY     83  49  30 E9        30.03F
$$

TXZ083>090-098>101-113>116-127>130-139>142-154-155-212200-
WESTERN NORTH TEXAS

CITY           SKY/WX    TMP DP  RH WIND       PRES   REMARKS
WICHITA FALLS  MOSUNNY   82  52  35 S12G20    30.01F
WF-KICKAPOO    SUNNY     83  48  30 SE7       30.03F
VERNON         SUNNY     84  48  28 S8        30.02F
ABILENE        SUNNY     80  48  32 S13       30.03F
ABILENE-DYESS  MOSUNNY   81  52  37 SE10      30.02F
BRECKENRIDGE   SUNNY     83  48  29 SE8       30.01F HAZE
GRAHAM         SUNNY     83  54  36 SE7       30.00F
MINERAL WELLS  SUNNY     82  45  27 S12       30.01F
STEPHENVILLE   SUNNY     80  49  33 SE8       30.06F
COMANCHE       MOSUNNY   81  54  38 E10       30.03F
BROWNWOOD      SUNNY     81  50  34 SE13      30.02F
COLEMAN        SUNNY     80  52  37 E3        30.03S
BRADY          SUNNY     79  48  34 SE7       30.02F
$$

TXZ143>147-156>162-174-175-212200-
CENTRAL TEXAS

CITY           SKY/WX    TMP DP  RH WIND       PRES   REMARKS
WACO           MOSUNNY   82  46  28 E8        30.01F
WACO-TSTC      SUNNY     82  46  28 E6        30.02F
WACO-MCGREGOR  MOSUNNY   82  48  30 SE8       30.03F
HILLSBORO      SUNNY     82  47  29 E7        30.03S
CORSICANA      SUNNY     80  57  45 E8        30.04F
MEXIA          SUNNY     80  57  46 E7        30.02F
HEARNE         SUNNY     81  55  40 E8        30.01F
CAMERON        SUNNY     81  51  35 E3        30.01F
TEMPLE         SUNNY     81  46  30 SE10      30.01F
KILLEEN        MOSUNNY   81  52  36 E10       30.01F
KILLEEN-SKYLRK SUNNY     79  54  41 E9        30.02S
FORT HOOD      SUNNY     83  52  34 NE7       30.02F
GATESVILLE     SUNNY     81  54  39 SE5       30.04F
HAMILTON       SUNNY     81  49  32 SE12G18   30.04S
LAMPASAS       SUNNY     80  55  42 E13       30.02S
$$

TXZ095>097-106>112-122>126-135>138-148>153-164>167-212200-
EAST TEXAS

CITY           SKY/WX    TMP DP  RH WIND       PRES   REMARKS
PARIS          SUNNY     79  57  47 E6        30.05F
SULPHUR SPRNGS MOSUNNY   81  60  48 E6        30.06F
MOUNT PLEASANT SUNNY     80  59  48 N3        30.05F
MINEOLA        MOSUNNY   81  61  50 E3        30.05F
TYLER          SUNNY     82  59  45 E8        30.03F
LONGVIEW       MOSUNNY   79  61  53 NE3       30.03F
MARSHALL       SUNNY     81  62  52 E5        30.05F
ATHENS         SUNNY     79  57  47 SE7       30.02F
PALESTINE      SUNNY     80  59  50 E3        30.04S
JACKSONVILLE   SUNNY     80  59  49 NE6       30.05F
HENDERSON      MOSUNNY   80  60  51 E6        30.04F
NACOGDOCHES    MOSUNNY   81  61  50 E7        30.03S
LUFKIN         SUNNY     82  60  47 NE9       30.02F
$$

SUPPLEMENTAL OBSERVATIONS (CENTRAL)

CITY           SKY/WX    TMP DP  RH WIND       PRES   REMARKS
LAKE TEXOMA      N/A     81  59  47 E5          N/A
CADDO GRASSLND   N/A     81  59  47 E5          N/A
PAT MAYSE LAKE   N/A     79  61  53 SE5         N/A
GREENVILLE       N/A     81  59  47 E6          N/A
CEDAR HILL       N/A     84  54  34 E3          N/A
ATHENS           N/A     81  57  44 SE7         N/A
PALESTINE        N/A     82  61  47 SE6         N/A
LAKE LIMESTONE   N/A     81  54  39 E8          N/A
MCGREGOR         N/A     82  46  28 E9          N/A
$$

SUPPLEMENTAL OBSERVATIONS (WEST)

CITY           SKY/WX    TMP DP  RH WIND       PRES   REMARKS
MILLERS CREEK    N/A     82  57  42 S8          N/A
POSSUM KINGDOM   N/A     82  50  32 SE9G17      N/A
LBJ GRASSLAND    N/A     82  48  30 SE8         N/A
COMANCHE         N/A     81  54  39 E12         N/A
HAMBY            N/A     81  48  32 S9          N/A
IVIE RESERVOIR   N/A     81  50  34 E7G17       N/A
COLORADO BEND    N/A     79  50  36 SE9G18      N/A
$$

SUPPLEMENTAL OBSERVATIONS (EAST)

CITY           SKY/WX    TMP DP  RH WIND       PRES   REMARKS
CLARKSVILLE      N/A     81  59  47 S2          N/A
LINDEN           N/A     82  61  47 SE2         N/A
GILMER           N/A    N/A N/A N/A E3          N/A
HENDERSON        N/A    N/A N/A N/A E7          N/A
LUFKIN           N/A     81  59  47 MISG        N/A
N SABINE NF      N/A     82  63  51 MISG        N/A
$$

SUPPLEMENTAL OBSERVATIONS ARE A COLLECTION OF AUTOMATED INSTRUMENTS
THAT ARE MAINTAINED BY A VARIETY OF FEDERAL AND STATE AGENCIES.
CERTAIN ELEMENTS...SUCH AS HUMIDITY VALUES AND SUSTAINED WIND
SPEEDS...MAY BE APPROXIMATED.




USA.gov is the U.S. government's official web portal to all federal, state and local government web resources and services.